Dewpoint
76 78 77 77 76 74 71 67 52 55 55 51 53 55 52 60 62 61 61 63 60 65 66 66 63 63 62 61 63 65 64 59 58 55 53 61 72 72 73 73 73 74 74 74 75 76 76 77 77 76 76 76 76 76 77 77 77 77 77 77 77 77 77 78 78 78 78 78 78 78 78 78 78 78 77 77 77 77 77 77 76 76 76 77 77 76 77 76 77 77 77 76 76 77 76 75 75
77 77 76 75 73 69 64 62 53 51 52 50 52 56 55 59 61 59 60 61 64 64 68 67 66 65 66 66 67 66 64 66 66 65 68 71 72 72 73 74 74 73 74 74 75 75 76 76 77 77 77 77 77 77 77 77 77 77 78 77 77 77 77 78 78 78 78 78 78 78 78 78 78 78 78 77 77 77 77 77 77 77 77 77 77 77 77 77 77 77 77 77 77 76 76 74 74
75 74 74 74 72 68 64 59 51 48 49 49 52 55 60 59 58 60 62 63 65 66 68 67 67 67 65 64 62 62 58 68 68 69 69 71 69 71 73 74 74 74 74 74 75 75 76 76 77 77 77 77 76 76 77 77 77 77 77 77 77 77 77 78 78 78 78 78 78 78 78 78 78 78 78 77 77 77 77 77 77 77 77 77 77 77 77 77 77 77 77 77 77 76 75 74 74
71 73 72 70 66 63 57 55 52 49 49 49 49 57 59 59 60 62 64 65 67 67 66 64 63 65 63 61 63 65 65 66 68 68 68 70 70 72 73 74 75 74 74 75 75 75 75 76 77 77 77 77 76 76 77 77 77 77 77 77 77 77 77 78 78 78 78 78 78 78 77 77 77 77 77 77 77 77 77 77 77 77 77 77 77 77 77 77 77 77 77 77 77 75 75 74 74
69 75 73 69 64 58 57 54 54 53 51 52 50 56 60 61 61 63 65 67 66 65 65 63 62 65 65 64 66 61 61 68 68 69 70 71 73 73 74 74 74 74 74 74 75 75 75 77 77 77 77 77 76 76 77 77 77 77 77 77 78 77 77 77 78 77 78 78 78 77 77 77 77 77 77 77 77 77 76 77 77 77 77 77 77 76 76 76 76 76 76 76 76 75 75 75 75
72 72 73 70 64 62 56 53 52 53 56 57 56 57 61 62 61 64 65 68 66 66 66 66 63 63 63 64 67 63 67 65 68 69 70 72 73 73 74 74 74 74 74 74 74 74 75 77 77 77 77 77 77 77 77 77 77 77 77 77 77 77 77 77 77 77 78 77 77 77 77 77 77 77 77 77 76 76 76 76 76 76 76 76 76 76 77 76 76 76 76 76 75 76 75 75 75
69 69 68 64 62 61 52 50 52 54 55 62 59 59 61 62 63 65 64 65 67 65 66 65 64 62 61 64 66 68 68 69 69 70 72 73 73 73 74 74 74 74 74 74 74 75 76 77 76 76 77 77 77 77 77 77 77 77 77 77 78 77 77 77 77 77 77 77 77 77 77 77 77 77 76 76 76 76 76 76 76 76 76 76 76 76 76 76 76 75 76 76 75 75 75 75 74
72 65 65 58 55 56 53 52 52 55 54 61 64 62 62 63 65 64 63 62 61 62 66 65 67 64 63 67 62 68 70 72 72 73 73 73 72 73 73 74 74 74 74 74 75 75 76 76 76 76 77 77 77 77 77 77 77 77 77 77 77 77 77 77 77 77 77 77 77 77 77 77 77 76 76 76 76 76 76 76 76 76 76 76 76 76 76 76 76 76 76 76 75 75 75 74 74
70 67 67 58 52 54 53 53 53 56 58 61 60 66 67 64 65 65 62 65 64 67 65 63 63 61 64 65 65 68 71 72 73 73 73 72 72 73 73 73 73 74 74 75 75 75 76 76 76 76 76 77 77 77 77 77 77 77 77 77 77 77 77 77 77 77 77 77 77 77 77 77 76 76 76 76 76 76 76 76 76 76 76 76 76 75 75 75 75 75 76 76 75 74 74 75 75
67 64 60 55 53 48 51 51 52 55 58 61 59 62 66 66 65 66 64 63 63 66 67 65 65 63 65 64 66 67 70 73 72 72 72 72 72 73 73 73 74 74 74 74 75 75 75 76 76 76 76 77 77 77 77 77 77 77 77 77 77 77 77 77 77 77 77 77 77 77 77 76 76 76 76 76 76 76 76 76 76 76 76 76 76 76 75 75 75 75 75 75 75 75 74 74 74
61 63 62 51 47 45 47 49 52 54 57 62 63 65 67 66 66 65 64 65 65 63 65 65 64 64 65 65 65 70 73 72 72 71 72 72 72 72 72 73 74 74 74 74 75 75 75 75 76 76 76 77 76 76 76 76 76 76 77 77 77 77 77 77 77 77 76 77 77 77 77 77 76 76 76 76 76 76 76 76 76 76 76 76 76 75 75 75 75 75 74 75 75 75 74 74 74
57 59 57 49 46 46 47 49 51 54 57 60 60 66 66 66 65 63 63 61 63 63 64 65 63 66 64 64 65 71 72 71 72 72 72 72 72 72 73 73 74 74 74 74 75 75 75 76 75 76 76 76 76 76 77 76 76 76 76 77 77 77 77 77 77 77 77 77 77 77 77 77 77 76 76 76 76 76 76 76 75 75 76 76 76 76 75 75 75 75 75 75 75 75 74 74 74
59 58 53 49 47 48 50 51 51 56 56 56 59 64 67 64 62 62 63 62 63 63 64 68 65 67 62 64 68 70 70 71 72 72 72 72 72 72 73 73 74 74 74 75 75 75 75 75 76 75 76 76 76 76 77 76 76 76 77 76 77 77 77 77 77 77 76 77 77 77 77 77 77 76 76 76 76 76 75 75 75 75 75 75 76 75 75 75 75 75 74 75 75 74 75 75 74
60 59 52 49 51 50 51 50 51 53 53 56 61 65 66 63 64 64 63 61 62 63 65 66 66 66 65 66 67 68 70 71 71 72 72 72 72 73 73 73 74 74 74 75 75 75 75 75 75 75 75 75 76 76 76 76 76 76 77 76 77 77 77 77 77 77 77 77 77 76 77 76 77 76 76 76 76 76 76 75 75 75 75 76 76 76 75 75 75 75 75 75 74 74 75 75 75
57 59 52 48 47 45 48 47 48 52 52 57 60 65 65 67 66 65 62 61 62 69 66 66 66 64 62 64 65 67 70 71 71 71 72 73 73 73 73 73 74 74 74 75 75 75 75 75 74 75 75 74 74 75 75 75 76 77 76 76 76 76 76 77 76 77 77 77 76 76 76 76 76 76 76 75 76 76 76 75 74 74 75 76 76 76 76 75 75 75 75 75 75 75 75 76 76
62 57 51 47 46 46 47 49 53 52 53 59 62 65 64 63 67 64 65 65 64 68 65 64 64 65 65 65 65 68 70 71 71 72 72 73 73 73 72 73 73 74 74 75 75 75 75 74 74 74 74 74 74 74 74 74 76 76 76 76 76 76 76 77 77 77 77 77 76 76 76 76 75 76 76 76 76 76 75 75 74 74 75 76 76 76 76 75 75 75 75 75 76 76 76 76 75
58 56 50 47 45 46 46 48 50 40 53 57 64 63 61 61 66 68 71 67 63 64 69 67 64 67 65 65 67 69 70 71 72 72 72 72 72 72 73 73 73 73 74 74 75 75 75 74 73 73 74 74 74 74 73 74 75 75 75 76 76 76 76 77 77 77 77 77 76 76 76 77 76 76 76 75 76 76 76 75 75 75 75 76 76 76 76 76 75 75 75 75 76 76 76 76 76
57 52 48 45 46 46 50 48 50 46 57 58 63 63 61 60 63 65 65 64 66 66 67 69 67 66 66 67 69 70 71 72 72 71 71 71 71 71 71 72 72 72 73 74 74 75 75 74 73 73 73 73 74 74 73 73 74 76 75 75 75 75 76 77 77 77 77 76 75 76 76 76 76 75 76 76 76 76 77 75 75 75 76 76 76 77 76 76 75 75 76 76 76 76 76 76 77
53 49 46 44 48 47 53 53 52 56 56 60 63 64 61 61 64 64 62 62 63 63 65 67 65 66 67 68 69 70 71 71 71 71 70 70 70 69 70 71 71 72 72 73 74 74 74 74 74 73 73 73 74 73 74 74 74 74 74 75 75 75 76 76 75 77 76 76 76 76 76 76 75 75 76 76 77 76 76 75 76 76 76 76 77 76 76 76 76 76 76 76 76 76 77 76 76
52 48 45 45 48 49 55 57 55 58 59 60 62 63 62 62 64 65 62 62 63 61 62 64 64 65 66 67 69 70 71 71 71 70 70 69 70 70 70 70 71 71 71 72 73 74 74 74 74 74 74 74 73 72 73 74 73 73 74 74 74 75 75 76 75 75 75 75 75 75 76 76 75 75 77 75 74 76 76 76 76 76 77 77 76 75 76 76 76 76 76 76 77 77 77 77 76
49 46 45 45 47 47 49 58 59 59 62 61 62 63 61 63 64 63 62 61 61 62 63 63 64 65 66 67 69 70 70 70 70 70 69 69 69 69 69 70 71 71 72 72 73 73 74 74 74 74 74 73 72 73 73 72 73 73 74 74 74 74 75 75 75 75 75 74 74 75 75 76 75 74 75 75 75 75 75 75 75 75 75 75 78 76 76 75 76 75 75 76 75 76 76 76 76
46 46 47 47 53 48 52 59 60 62 63 62 62 60 61 64 64 62 62 59 58 61 63 65 65 66 66 67 68 69 70 70 70 70 69 69 69 69 70 70 71 71 72 72 72 73 74 74 74 74 73 73 74 73 73 73 74 72 73 73 73 74 74 74 74 74 74 74 74 75 75 75 74 74 74 74 74 75 75 75 75 75 75 75 76 75 75 75 75 75 75 75 75 75 75 75 76
36 40 40 44 53 48 56 60 61 63 61 61 61 61 64 63 62 63 62 60 61 64 65 65 65 66 67 67 68 69 69 69 69 69 69 69 69 69 69 70 70 71 71 72 72 73 73 74 74 74 73 73 73 74 74 74 73 73 74 74 73 73 74 74 74 74 74 74 74 75 74 74 74 74 74 74 74 74 74 74 74 74 74 74 75 75 75 75 75 75 75 75 75 74 75 75 75
32 36 43 47 50 51 58 59 62 62 62 61 63 64 62 62 59 62 62 62 64 68 66 66 65 66 67 67 68 68 69 69 69 70 70 69 69 69 69 69 70 71 71 71 72 72 73 73 74 74 74 74 74 74 73 74 74 73 73 73 73 74 74 74 74 74 74 74 74 75 75 74 74 74 74 73 74 74 74 74 74 74 74 74 75 75 75 75 75 75 75 75 75 75 74 75 75
35 33 42 53 54 55 61 63 63 62 63 63 64 61 61 62 61 62 62 63 64 67 66 66 65 66 67 67 67 68 69 69 70 70 70 70 70 70 70 70 70 70 70 71 72 72 72 73 73 74 73 74 74 74 73 74 74 74 74 74 73 74 73 73 73 74 74 74 74 75 76 74 74 74 74 74 74 74 74 74 74 74 74 74 75 75 75 74 74 74 75 74 74 74 74 74 75
31 23 28 46 51 58 61 62 61 62 63 63 61 60 61 63 64 62 63 64 66 66 66 66 66 66 66 67 67 68 68 68 69 69 69 70 70 70 70 70 70 70 70 71 71 71 72 73 73 73 73 73 74 73 73 74 74 74 74 74 73 75 73 73 74 74 74 74 74 74 75 74 74 74 74 74 73 73 74 74 74 74 74 74 74 74 74 74 74 74 74 74 73 74 74 74 75
27 23 25 41 50 57 60 59 60 61 63 63 60 59 61 64 60 57 61 65 67 66 65 66 66 66 66 66 67 67 68 68 69 69 69 69 70 70 70 70 70 70 71 71 71 71 72 73 72 72 73 74 73 73 73 73 74 74 74 74 74 74 74 74 74 74 74 74 74 74 75 75 74 73 73 73 73 73 73 74 74 74 74 74 74 74 74 74 74 74 74 73 74 74 74 74 74
24 23 28 37 55 59 60 59 60 60 59 63 61 60 62 63 61 58 60 66 66 65 65 65 65 66 66 66 67 67 68 68 68 69 68 68 69 69 70 69 70 70 70 70 71 72 72 72 72 72 73 73 74 73 74 73 73 73 74 73 73 74 74 73 73 73 74 74 74 74 74 75 75 74 73 73 73 73 73 73 73 74 74 74 74 73 74 74 74 74 73 74 74 74 74 74 74
28 29 31 40 53 53 56 57 59 59 58 63 63 59 57 60 60 61 62 66 65 65 65 65 65 65 66 66 66 67 67 68 68 68 68 68 69 69 69 70 70 70 70 71 71 72 72 72 72 73 73 73 73 73 73 73 73 73 73 73 73 73 74 73 73 73 74 74 74 74 74 74 75 74 73 73 74 73 72 72 72 73 73 74 74 73 73 74 74 74 74 74 74 74 74 73 73
28 45 38 32 47 40 51 59 60 59 59 64 59 45 45 54 61 61 63 65 64 64 64 64 64 65 65 65 66 66 67 67 67 68 68 68 69 69 69 70 70 70 70 71 71 71 72 72 72 72 72 73 73 73 73 73 73 73 73 73 74 73 74 73 73 73 73 74 74 74 74 74 75 75 74 74 73 72 72 72 72 72 73 73 74 74 73 73 73 73 73 73 74 74 73 72 73
20 34 44 42 35 29 46 56 59 58 60 63 53 45 45 47 50 58 64 65 63 63 64 64 64 64 65 65 65 66 66 67 67 67 68 68 69 69 69 69 70 70 71 70 70 71 72 72 72 72 72 72 73 73 73 73 73 73 73 73 73 73 74 74 73 73 73 74 74 74 74 74 74 74 74 74 73 72 72 71 71 71 71 72 72 73 73 73 73 72 73 72 72 71 71 72 71
36 21 23 32 32 34 43 53 57 54 57 63 53 47 48 49 50 54 65 64 63 62 63 64 64 64 64 65 65 65 65 66 67 67 67 68 68 68 69 69 70 70 70 70 70 71 71 71 72 71 72 72 73 73 73 73 73 73 73 73 73 73 74 73 73 73 73 73 74 74 74 74 74 74 74 74 73 72 71 71 71 72 72 72 71 71 72 72 72 72 72 72 71 69 70 69 72
28 21 25 22 30 36 32 48 57 57 60 60 54 46 48 45 53 59 64 64 63 62 62 63 63 63 63 64 64 65 65 65 66 67 67 68 68 68 68 69 69 70 70 70 70 70 71 71 72 71 71 72 72 72 73 73 72 72 72 73 73 73 73 73 74 74 73 73 73 74 74 74 75 74 74 74 73 72 72 71 71 71 72 72 71 71 71 72 71 70 71 72 71 71 68 67 70
22 24 22 24 21 22 21 36 49 57 58 56 58 52 50 46 55 61 63 64 62 61 62 63 63 63 63 63 64 64 65 65 65 66 67 67 67 68 69 70 70 70 70 70 70 70 70 71 71 71 71 71 72 72 72 72 72 72 72 72 73 73 73 73 74 74 73 73 73 73 74 74 75 74 74 74 73 72 72 72 71 72 73 73 72 70 70 70 71 70 70 71 71 70 69 68 69
17 23 18 17 26 26 22 22 35 55 56 54 56 56 54 53 56 61 63 64 62 61 62 63 63 63 63 63 63 64 64 65 65 66 66 67 67 68 68 69 69 70 70 70 70 70 71 71 71 71 71 71 71 72 72 72 72 71 71 71 72 72 72 73 73 73 73 73 72 73 73 73 74 74 74 74 73 72 73 73 73 73 74 74 71 70 70 71 71 70 69 70 72 71 70 69 69
16 20 17 19 14 16 16 18 33 52 54 53 54 53 53 54 55 59 62 64 62 61 62 62 63 63 63 63 63 63 64 64 65 66 67 67 67 68 68 68 69 69 70 70 71 70 70 70 71 71 71 71 71 71 72 71 71 71 70 70 70 71 71 72 73 73 73 72 72 72 73 73 73 74 74 73 73 73 73 72 73 73 74 73 71 70 70 71 71 71 70 69 71 71 71 71 71
15 15 15 11 13 11 12 15 16 51 51 52 52 53 52 51 52 57 62 63 63 62 62 62 62 62 62 62 62 63 63 64 65 66 67 67 68 68 69 69 69 70 70 70 70 69 70 70 70 70 71 71 71 71 71 70 70 70 70 69 69 70 71 71 72 72 72 72 72 72 72 72 72 73 74 73 73 74 74 74 73 73 74 74 71 70 70 71 72 71 72 74 70 69 70 71 72
12 12 12 12 13 13 13 16 45 52 47 46 51 52 51 52 53 57 62 63 62 62 61 62 62 62 62 62 62 62 63 66 67 66 67 68 68 69 68 69 70 69 69 70 69 69 70 70 70 70 71 71 71 70 70 70 70 69 69 69 69 69 70 71 71 71 71 71 72 72 72 71 72 72 74 74 74 73 74 74 74 73 74 74 72 72 71 75 74 72 71 70 71 68 69 70 71
14 11 14 12 14 16 15 23 41 52 48 44 49 50 50 51 52 58 62 62 62 63 62 62 62 62 62 62 62 62 64 65 66 66 67 67 68 68 68 68 68 69 70 69 69 69 69 69 70 70 71 71 71 71 71 70 70 70 69 69 69 70 71 71 70 71 71 70 70 71 71 71 72 72 73 75 74 73 73 74 74 73 73 76 74 74 74 74 71 70 70 68 68 69 70 71 71
11 12 21 11 16 11 14 29 50 51 46 43 48 48 47 50 51 54 60 62 61 62 63 62 62 62 62 62 62 62 64 64 65 65 66 66 67 68 68 68 68 68 69 69 69 68 68 70 69 70 70 71 71 71 72 70 70 70 70 70 70 71 71 72 72 71 71 70 69 69 70 71 72 72 72 73 74 74 74 73 73 72 73 74 72 71 72 71 72 71 70 71 71 67 67 68 71
13 12 12 11 11 10 9 15 35 47 48 47 44 41 34 42 43 45 57 60 60 60 62 62 62 63 63 62 63 63 63 64 64 65 66 66 67 67 67 68 68 68 68 68 68 68 68 68 69 70 70 70 71 72 72 71 71 70 70 71 72 71 72 71 70 70 70 70 70 69 68 70 71 71 72 73 74 74 74 73 73 72 72 73 73 71 70 69 70 71 70 72 70 68 67 67 69
12 12 12 12 12 11 9 12 30 30 27 43 40 31 33 39 38 42 52 58 59 60 61 61 61 62 62 62 62 63 64 65 64 64 65 66 66 67 67 68 68 68 68 68 68 68 67 68 69 70 70 70 70 71 71 71 71 69 69 69 69 69 69 69 69 69 69 68 68 69 68 68 69 71 72 72 73 75 74 73 73 73 72 73 74 71 71 71 71 70 70 70 69 69 69 68 67
12 13 12 12 12 10 13 23 24 20 16 32 39 29 28 34 35 41 50 57 57 58 59 60 60 61 62 62 62 62 63 64 65 65 65 65 66 66 67 67 68 68 68 68 68 68 67 68 68 69 70 70 70 71 71 71 70 69 69 68 68 68 68 69 70 70 69 69 69 69 69 69 69 70 71 72 73 74 74 74 74 73 73 72 74 73 71 70 70 70 72 71 70 72 70 68 67
11 12 11 11 10 9 11 22 15 19 29 29 36 33 28 27 31 45 51 56 56 57 58 59 60 60 61 62 62 62 63 64 64 64 65 65 66 66 66 67 68 69 69 69 68 68 67 68 68 69 70 70 70 70 71 71 70 69 69 69 69 69 68 69 69 70 69 70 69 68 69 69 70 71 71 72 73 74 75 74 74 74 73 73 73 74 72 71 72 72 74 72 72 73 70 69 68
12 14 11 11 11 11 13 14 17 18 20 17 34 39 29 35 37 46 56 51 53 54 56 59 60 60 61 62 62 63 63 64 64 64 64 65 65 66 66 66 69 69 69 69 68 67 67 68 69 69 69 70 70 70 71 71 71 69 69 68 68 69 69 69 70 71 71 71 69 69 69 69 71 72 72 72 73 74 75 75 74 74 73 73 75 74 73 72 72 72 73 73 74 75 72 70 71
12 15 18 18 22 29 20 14 16 22 17 21 31 35 27 27 33 45 51 53 52 52 54 56 59 60 60 61 62 63 63 64 64 64 64 65 65 66 66 67 68 67 67 68 68 68 67 67 68 69 69 70 70 70 71 70 70 71 69 68 68 69 70 70 70 70 70 70 69 69 70 71 71 72 73 73 73 74 74 75 74 73 73 73 74 73 73 73 73 73 72 72 73 73 74 73 70
14 15 12 12 20 26 34 30 26 22 17 23 22 29 23 20 32 44 40 40 47 51 51 53 58 60 60 61 62 62 63 63 63 64 64 64 65 66 66 67 67 67 67 68 68 67 67 67 67 68 69 70 70 70 70 70 70 70 69 69 68 68 69 69 69 69 70 69 69 69 70 70 71 71 72 73 73 73 74 75 74 74 73 75 75 74 73 72 72 72 72 72 74 73 73 75 74
15 13 13 11 16 26 30 30 30 19 18 25 23 26 21 18 27 37 45 51 54 53 51 50 52 59 60 60 62 62 63 63 63 63 64 64 65 66 66 66 67 67 67 68 67 67 67 67 67 68 69 69 70 70 70 70 70 70 69 69 68 68 69 69 69 68 69 69 68 68 70 70 71 71 72 72 73 72 73 73 74 74 75 74 74 74 73 73 73 73 72 73 73 74 74 75 73
14 20 19 11 14 18 14 21 15 19 15 20 24 23 22 26 29 34 39 41 50 53 53 52 52 55 60 60 61 62 63 63 63 63 64 64 65 66 66 66 67 67 67 67 67 67 67 67 67 68 68 69 69 70 70 70 70 70 70 69 69 69 69 69 69 68 69 69 69 68 69 69 70 70 71 71 72 72 73 73 73 73 74 74 74 74 74 74 74 73 72 72 73 74 73 74 72
14 12 20 15 14 18 11 22 21 18 16 19 25 29 28 31 34 40 43 45 49 53 51 52 54 56 59 60 62 62 63 63 63 64 64 64 65 66 66 66 67 67 67 68 68 68 67 67 67 67 68 69 69 69 70 70 70 70 70 69 69 70 69 69 69 68 68 69 69 69 68 68 69 69 70 71 71 71 72 72 73 73 74 74 75 74 74 74 74 73 73 72 72 73 73 73 72
15 13 12 17 17 16 13 19 9 11 13 14 19 24 27 29 34 40 46 49 53 58 60 61 62 60 60 61 62 63 63 63 64 64 64 64 65 65 66 67 67 67 68 67 68 69 69 68 67 68 67 68 69 69 69 70 69 70 70 70 69 69 69 70 69 69 69 69 69 69 69 69 68 69 70 71 72 72 72 72 72 73 73 74 74 75 75 75 75 75 74 73 73 72 73 73 72
22 12 19 21 23 26 11 20 15 18 17 20 27 29 31 34 39 49 48 46 47 50 54 60 60 61 61 61 62 62 63 64 64 64 64 65 65 65 66 67 67 67 67 67 68 69 69 68 68 68 67 68 69 70 69 69 69 70 70 70 70 70 70 70 70 71 70 70 70 70 69 70 69 70 70 71 71 72 71 71 72 72 73 73 74 74 75 74 74 74 74 74 73 73 73 73 73
26 22 23 22 21 15 19 38 29 25 26 25 29 33 37 39 38 45 52 50 50 48 47 53 57 60 60 61 61 62 63 64 64 64 64 65 65 65 66 67 67 67 66 66 67 68 69 69 68 68 68 68 68 69 69 69 69 69 70 70 70 70 70 70 69 70 70 70 70 70 70 70 70 71 71 71 71 72 72 72 71 72 72 73 73 74 73 74 74 74 73 74 73 73 74 73 73
24 22 22 25 18 19 22 19 24 23 20 25 30 30 40 38 32 48 53 52 52 52 50 49 54 57 60 60 61 61 62 64 65 65 65 65 65 65 66 66 67 67 66 66 67 69 69 69 69 68 69 68 69 69 69 69 69 69 69 70 70 70 70 70 70 70 71 71 71 71 71 71 71 71 71 71 72 71 72 73 72 72 72 73 74 73 74 74 74 74 74 74 73 74 74 75 74
22 21 27 20 22 24 26 24 20 16 17 21 28 31 39 45 48 52 54 53 53 55 55 50 50 52 56 59 60 61 62 62 63 64 64 65 65 65 65 66 66 67 68 67 67 68 69 69 69 69 69 69 69 69 70 70 69 69 69 70 70 70 70 70 71 71 71 70 70 71 71 71 71 72 73 73 73 72 73 72 73 72 72 72 72 73 74 74 74 74 74 74 74 75 74 74 74
27 26 22 26 25 26 25 25 27 21 18 26 26 33 34 43 51 54 55 56 56 58 58 56 54 57 56 56 57 58 59 61 62 63 64 65 65 66 66 66 66 67 68 68 68 69 69 69 69 70 70 70 71 70 70 70 70 69 69 70 71 71 71 71 71 71 71 70 70 71 71 71 71 72 72 72 73 73 73 73 73 73 72 72 72 73 74 74 74 74 74 73 74 74 74 74 74
24 26 25 23 27 27 24 27 24 23 22 26 27 27 37 46 55 57 57 58 59 59 59 59 61 62 62 62 62 62 62 60 60 62 63 64 65 65 66 66 67 67 68 68 68 68 68 69 70 70 69 68 69 70 71 71 71 70 70 70 71 71 71 71 71 72 71 71 71 72 71 72 73 72 73 72 73 73 74 74 73 74 73 74 74 74 74 74 74 74 74 74 74 74 74 74 74
28 27 32 28 22 23 21 23 24 26 27 22 28 27 34 48 57 58 58 59 60 60 60 61 61 62 62 62 63 63 64 64 63 59 62 64 65 65 66 66 68 68 68 68 68 68 68 69 70 70 70 70 70 71 71 71 71 72 71 70 71 71 71 71 72 72 72 72 71 72 72 73 72 73 73 72 73 73 73 74 73 73 73 73 74 74 74 75 74 74 74 74 74 74 74 74 74